Location: Unnamed
(51.5169°N, 0.1311°W)
Time: 16:21:00
(UTC+01:00)

ACS3 Solar Sail - Visible Passes

Search period start: 23 July 2024 00:00
Search period end: 02 August 2024 00:00
Orbit: 993 x 1022 km, 97.4° (Epoch: 23 July)

Date Brightness Start Highest point End Pass type
(mag) Time Alt. Az. Time Alt. Az. Time Alt. Az.
23 Jul 5.9 22:43:08 10° SSW 22:48:59 42° W 22:54:56 10° NNW visible
24 Jul 5.0 21:32:53 10° SSE 21:39:04 72° ENE 21:45:21 10° N visible
24 Jul 6.6 23:18:50 10° SW 23:23:48 25° W 23:28:51 10° NNW visible
25 Jul 5.1 22:07:18 10° S 22:13:31 70° W 22:19:49 10° NNW visible
25 Jul 7.2 23:55:45 10° WSW 23:58:50 14° W 00:01:57 10° NW visible
26 Jul 5.9 22:42:18 10° SSW 22:48:08 41° W 22:54:04 10° NNW visible
27 Jul 4.9 21:32:00 10° SSE 21:38:12 74° ENE 21:44:30 10° N visible
27 Jul 6.7 23:18:02 10° SW 23:22:58 24° W 23:27:57 10° NW visible
28 Jul 5.2 22:06:26 10° S 22:12:39 68° W 22:18:56 10° NNW visible
28 Jul 7.2 23:55:03 10° WSW 23:58:00 13° W 00:00:58 10° NW visible
29 Jul 6.0 22:41:28 10° SSW 22:47:17 40° W 22:53:10 10° NNW visible
30 Jul 4.9 21:31:06 10° SSE 21:37:20 75° ENE 21:43:38 10° N visible
30 Jul 6.7 23:17:14 10° SW 23:22:07 23° W 23:27:03 10° NW visible
31 Jul 5.2 22:05:34 10° S 22:11:46 67° W 22:18:05 10° NNW visible
31 Jul 7.2 23:54:22 10° WSW 23:57:10 13° W 23:59:59 10° NW visible
01 Aug 6.0 22:40:38 10° SSW 22:46:25 39° W 22:52:18 10° NNW visible
